Погода в Хуанши

Китай     30°13′23″N   115°02′59″E
темп.,
°C
ветер,
м/с
пор.,
м/с
влажн.,
%
обл.,
%
осадки,
мм/ч
давл.,
гПа
погр.,
м
10 мая, пн
пн1023:00+23юв35860 0.0 100485
02:00+23юв34910 0.0 100367
05:00+22вюв3394100 0.0 100454
08:00+25юв348497 0.0 1005212
11:00+29юв44655 0.0 1004664
14:00+32юв3355100 0.0 10021397
17:00+20ююв2398100 50.4 100499
20:00+21ю3495100 53.4 1004201
11 мая, вт
вт1123:00+21юв3694100 4.0 1004240
02:00+21вюв51095100 10.5 1004395
05:00+21вюв5896100 3.9 1003376
08:00+21в4697100 9.3 1004411
11:00+22юв4596100 21.4 1005307
14:00+22ююв1295100 23.7 1004188
17:00+23з1291100 0.8 1004188
20:00+20з239589 1.1 1006153
12 мая, ср
ср1223:00+20юз1194100 0.0 100751
02:00+20з129479 0.0 100660
05:00+19з119462 0.1 100634
08:00+20з1293100 0.3 1007121
11:00+24ююз1179100 0.1 1007655
14:00+26зюз337499 0.8 1005781
17:00+26з227317 0.1 1004675
20:00+23зюз1184100 0.1 100511
13 мая, чт
чт1323:00+23ююв228930 0.0 100614
02:00+22вюв2292100 0.0 100513
05:00+21вюв239469 0.0 100554
08:00+24вюв3589100 0.0 1006318
11:00+27ююв4477100 0.1 1006721
14:00+24ююз2392100 4.2 1005180
17:00+25юв2287100 0.8 1004250
20:00+23вюв3494100 0.9 100467
14 мая, пт
пт1423:00+23юв2397100 2.4 1005109
02:00+22вюв5898100 9.4 1002270
05:00+22юв3598100 5.8 1002185
08:00+22вюв3699100 16.1 1003254
11:00+25юв5790100 4.0 1003451
14:00+27юв458199 4.9 1001604
17:00+29ю247934 1.0 1000661
20:00+26юв339086 1.3 100126